Temp
-6 -6 -7 -5 -6 -6 -8 -6 -6 -6 -5 -5 -4 -4 -5 -6 -6 -5 -5 -5 -5 -5 -5 -5 -4 -4 -4 -4 -4 -5 -4 -4 -4 -4 -5 -5 -5 -5 -5 -5 -5 -5 -5 -5 -5 -5 -5 -5 -5
-6 -6 -7 -6 -6 -8 -8 -7 -7 -6 -6 -5 -4 -4 -5 -5 -6 -6 -5 -5 -5 -6 -5 -5 -5 -5 -4 -4 -5 -5 -5 -5 -5 -5 -5 -5 -5 -5 -5 -5 -5 -5 -5 -5 -5 -5 -5 -5 -5
-7 -7 -7 -6 -6 -8 -8 -7 -7 -7 -6 -6 -5 -4 -5 -5 -6 -6 -6 -6 -6 -6 -6 -5 -5 -5 -5 -5 -5 -5 -5 -5 -5 -5 -5 -5 -5 -5 -5 -5 -5 -6 -5 -6 -6 -6 -5 -5 -5
-7 -7 -7 -7 -7 -6 -7 -7 -7 -7 -7 -6 -6 -5 -6 -6 -6 -6 -6 -6 -6 -6 -6 -6 -6 -5 -5 -5 -5 -5 -5 -5 -6 -6 -6 -6 -6 -6 -6 -6 -6 -6 -6 -6 -6 -6 -6 -6 -6
-7 -7 -8 -7 -7 -6 -7 -7 -8 -7 -7 -7 -6 -5 -6 -6 -6 -7 -7 -7 -6 -7 -7 -7 -6 -6 -6 -6 -6 -6 -6 -6 -6 -6 -6 -6 -6 -6 -6 -6 -6 -6 -6 -6 -6 -6 -6 -6 -6
-7 -7 -8 -9 -7 -7 -7 -7 -8 -8 -8 -7 -7 -6 -7 -7 -7 -7 -8 -7 -7 -7 -7 -7 -7 -7 -6 -7 -7 -7 -6 -6 -6 -6 -6 -6 -6 -6 -6 -6 -6 -6 -6 -6 -5 -6 -6 -6 -6
-7 -7 -9 -10 -8 -7 -7 -7 -7 -8 -8 -8 -7 -7 -7 -7 -8 -7 -8 -7 -7 -7 -8 -8 -7 -7 -7 -7 -7 -7 -7 -7 -7 -7 -7 -7 -6 -6 -6 -6 -6 -6 -6 -6 -6 -6 -6 -6 -6
-7 -7 -8 -8 -10 -10 -7 -7 -7 -7 -8 -8 -8 -8 -7 -7 -7 -7 -8 -8 -8 -8 -8 -8 -8 -8 -7 -8 -7 -7 -7 -7 -7 -7 -7 -7 -6 -7 -6 -6 -6 -6 -6 -6 -6 -6 -6 -6 -6
-7 -7 -8 -11 -9 -11 -7 -8 -8 -8 -8 -8 -8 -8 -8 -7 -7 -8 -9 -9 -9 -9 -9 -9 -9 -9 -8 -8 -8 -8 -8 -8 -8 -7 -7 -7 -7 -7 -7 -7 -7 -7 -6 -6 -6 -6 -6 -6 -6
-7 -8 -8 -9 -8 -9 -8 -8 -8 -8 -8 -8 -9 -9 -9 -9 -9 -9 -9 -9 -10 -9 -9 -9 -9 -9 -9 -9 -9 -8 -8 -8 -8 -8 -7 -7 -7 -7 -7 -7 -7 -7 -7 -7 -7 -7 -7 -6 -6
-7 -8 -9 -9 -9 -9 -9 -9 -9 -10 -9 -8 -8 -8 -8 -8 -9 -9 -8 -9 -8 -9 -8 -9 -9 -8 -8 -9 -9 -9 -9 -9 -8 -8 -8 -8 -8 -8 -7 -7 -7 -7 -7 -7 -7 -7 -7 -7 -7
-8 -8 -9 -10 -10 -10 -10 -12 -10 -11 -10 -9 -9 -9 -9 -9 -8 -5 -5 -8 -9 -9 -9 -8 -8 -9 -9 -9 -9 -9 -9 -9 -9 -8 -8 -8 -8 -8 -8 -8 -8 -8 -8 -8 -7 -8 -8 -7 -7
-9 -9 -9 -10 -10 -11 -10 -11 -12 -11 -11 -11 -10 -10 -9 -9 -9 -8 -9 -8 -9 -9 -9 -9 -10 -9 -10 -9 -10 -9 -10 -9 -9 -9 -9 -9 -8 -8 -8 -9 -9 -9 -8 -8 -8 -8 -8 -9 -8
-9 -10 -10 -11 -11 -11 -11 -11 -13 -11 -11 -11 -11 -12 -11 -10 -10 -9 -10 -9 -11 -12 -10 -11 -9 -10 -10 -9 -10 -10 -10 -10 -10 -9 -9 -9 -9 -9 -9 -9 -9 -9 -9 -9 -9 -9 -9 -9 -9
-9 -10 -11 -11 -12 -12 -12 -12 -12 -12 -13 -11 -11 -11 -11 -11 -9 -9 -9 -9 -10 -10 -10 -9 -10 -10 -10 -10 -10 -10 -10 -10 -10 -10 -10 -10 -10 -10 -10 -10 -10 -9 -10 -10 -9 -9 -10 -10 -10
-10 -11 -12 -12 -12 -12 -12 -13 -13 -13 -12 -12 -11 -13 -11 -11 -11 -11 -9 -9 -10 -10 -11 -11 -11 -11 -10 -10 -10 -11 -11 -11 -11 -10 -11 -12 -12 -11 -11 -10 -10 -10 -10 -10 -10 -10 -10 -10 -9
-11 -13 -12 -12 -12 -12 -12 -13 -13 -13 -13 -13 -13 -11 -11 -11 -11 -10 -11 -11 -11 -10 -11 -10 -10 -10 -11 -11 -11 -12 -12 -11 -11 -11 -12 -12 -12 -11 -11 -11 -11 -11 -11 -11 -11 -11 -11 -10 -11
-12 -12 -12 -13 -12 -12 -12 -12 -13 -13 -13 -13 -11 -11 -11 -12 -12 -12 -12 -11 -11 -11 -11 -11 -10 -11 -11 -12 -11 -12 -12 -12 -13 -14 -13 -12 -11 -11 -11 -11 -11 -11 -11 -11 -11 -11 -12 -12 -11
-11 -12 -12 -12 -12 -12 -12 -12 -13 -13 -13 -12 -12 -12 -12 -12 -12 -11 -12 -13 -11 -11 -11 -12 -11 -13 -12 -12 -12 -12 -14 -14 -14 -13 -13 -12 -11 -12 -12 -12 -11 -11 -12 -12 -12 -12 -13 -13 -13
-11 -11 -12 -12 -12 -12 -12 -13 -13 -12 -13 -13 -13 -12 -12 -12 -12 -13 -13 -13 -12 -13 -12 -12 -12 -13 -13 -14 -14 -13 -14 -13 -13 -13 -13 -13 -13 -12 -13 -12 -12 -12 -12 -12 -12 -12 -12 -13 -12
-12 -12 -12 -12 -12 -13 -13 -13 -13 -12 -13 -13 -13 -12 -12 -12 -13 -13 -13 -13 -14 -14 -13 -13 -14 -14 -14 -14 -14 -14 -14 -14 -13 -13 -14 -14 -14 -14 -13 -13 -13 -13 -13 -13 -13 -13 -13 -13 -13
-12 -12 -12 -12 -13 -13 -13 -13 -13 -13 -13 -14 -13 -13 -13 -13 -13 -13 -13 -14 -14 -14 -14 -14 -14 -14 -14 -14 -14 -14 -14 -14 -14 -14 -14 -14 -14 -14 -14 -14 -13 -14 -13 -14 -14 -14 -14 -13 -13
-12 -12 -13 -13 -14 -14 -14 -14 -13 -14 -14 -14 -14 -14 -13 -13 -13 -14 -13 -13 -13 -14 -14 -13 -13 -13 -13 -13 -14 -14 -14 -14 -14 -14 -14 -14 -14 -14 -14 -14 -14 -14 -14 -14 -14 -14 -14 -14 -13
-12 -12 -12 -13 -14 -14 -14 -14 -14 -14 -14 -14 -14 -14 -14 -14 -14 -14 -14 -14 -14 -13 -13 -14 -14 -13 -14 -14 -14 -14 -14 -15 -14 -15 -15 -15 -15 -14 -14 -14 -14 -14 -14 -14 -14 -14 -15 -15 -15
-12 -13 -14 -14 -13 -14 -14 -14 -14 -14 -14 -14 -14 -14 -14 -14 -14 -14 -14 -14 -13 -14 -14 -14 -14 -14 -14 -14 -15 -15 -15 -14 -14 -14 -15 -14 -14 -14 -14 -14 -14 -14 -14 -14 -15 -15 -15 -15 -15
-12 -13 -15 -15 -14 -14 -14 -15 -14 -14 -14 -14 -14 -14 -14 -14 -14 -14 -14 -14 -14 -15 -15 -15 -15 -14 -14 -14 -14 -15 -15 -15 -15 -14 -14 -14 -14 -14 -14 -14 -14 -14 -14 -14 -14 -15 -15 -15 -16
-13 -13 -13 -14 -14 -14 -15 -14 -14 -14 -14 -14 -15 -14 -14 -14 -14 -14 -14 -14 -15 -15 -15 -14 -15 -14 -14 -14 -14 -14 -14 -14 -14 -14 -14 -14 -14 -14 -14 -14 -14 -14 -14 -15 -15 -15 -16 -16 -17
-13 -13 -14 -15 -15 -15 -15 -15 -15 -14 -14 -14 -14 -14 -14 -15 -15 -15 -15 -14 -14 -14 -14 -14 -15 -14 -14 -14 -14 -14 -14 -14 -14 -14 -14 -14 -14 -14 -14 -14 -14 -15 -15 -15 -15 -16 -17 -17 -18
-13 -14 -14 -14 -14 -15 -16 -15 -16 -15 -15 -15 -14 -15 -15 -15 -15 -15 -15 -15 -15 -15 -15 -15 -15 -14 -14 -14 -14 -14 -14 -14 -14 -14 -14 -14 -14 -14 -14 -15 -15 -15 -15 -15 -15 -16 -17 -18 -18
-13 -14 -14 -14 -15 -15 -15 -15 -15 -15 -15 -15 -15 -15 -15 -15 -15 -15 -16 -15 -15 -15 -15 -15 -15 -15 -15 -14 -14 -14 -13 -13 -13 -14 -14 -14 -14 -15 -15 -15 -15 -15 -15 -15 -16 -16 -17 -18 -18
Height
5917 5918 5919 5925 5928 5928 5929 5926 5925 5925 5924 5924 5922 5921 5921 5921 5922 5924 5922 5921 5920 5920 5920 5920 5921 5922 5921 5922 5923 5923 5922 5921 5921 5921 5921 5921 5921 5921 5922 5922 5923 5923 5922 5922 5922 5922 5921 5921 5920
5915 5916 5918 5924 5927 5930 5931 5925 5924 5924 5923 5924 5923 5921 5921 5920 5920 5920 5921 5921 5920 5921 5920 5921 5920 5921 5920 5920 5921 5921 5921 5920 5920 5920 5920 5920 5920 5920 5921 5921 5921 5921 5921 5921 5921 5921 5920 5919 5919
5913 5913 5917 5921 5924 5926 5926 5923 5923 5923 5923 5923 5923 5921 5919 5919 5919 5920 5920 5921 5921 5921 5921 5922 5920 5920 5922 5921 5921 5921 5920 5920 5919 5919 5918 5919 5920 5920 5920 5920 5920 5920 5920 5920 5919 5919 5918 5918 5917
5910 5911 5915 5918 5921 5921 5922 5922 5921 5922 5922 5922 5922 5921 5919 5918 5919 5919 5920 5921 5921 5922 5922 5922 5922 5921 5921 5920 5921 5921 5919 5920 5919 5919 5918 5918 5919 5919 5919 5919 5918 5918 5918 5917 5917 5917 5916 5916 5915
5908 5909 5911 5914 5915 5919 5920 5920 5920 5921 5921 5921 5921 5920 5918 5918 5917 5918 5919 5921 5921 5921 5921 5921 5920 5919 5919 5919 5920 5921 5920 5918 5918 5917 5917 5917 5917 5917 5917 5917 5916 5916 5915 5914 5914 5913 5913 5913 5913
5906 5907 5909 5910 5910 5915 5917 5918 5919 5919 5920 5920 5921 5920 5918 5917 5917 5918 5918 5919 5920 5919 5919 5919 5918 5917 5918 5917 5917 5918 5918 5917 5916 5915 5914 5914 5914 5914 5914 5914 5913 5912 5912 5911 5910 5910 5910 5910 5910
5903 5904 5906 5906 5905 5909 5914 5916 5917 5917 5918 5918 5919 5920 5920 5918 5917 5917 5917 5918 5917 5917 5916 5915 5915 5914 5914 5915 5913 5914 5915 5914 5913 5912 5911 5911 5911 5910 5910 5909 5909 5909 5908 5907 5907 5906 5905 5905 5905
5900 5901 5900 5901 5902 5902 5908 5912 5913 5913 5914 5915 5916 5917 5918 5917 5916 5916 5915 5913 5913 5913 5913 5911 5911 5910 5910 5912 5911 5911 5910 5910 5909 5908 5908 5906 5906 5905 5905 5904 5904 5903 5903 5902 5902 5901 5900 5899 5899
5896 5898 5898 5899 5897 5898 5898 5905 5908 5910 5910 5911 5913 5913 5914 5912 5912 5912 5909 5908 5907 5906 5905 5906 5905 5905 5906 5908 5906 5906 5906 5905 5904 5903 5903 5902 5901 5900 5899 5899 5898 5899 5898 5897 5896 5895 5894 5893 5893
5892 5893 5894 5891 5892 5891 5891 5896 5902 5906 5907 5906 5908 5908 5906 5904 5905 5905 5902 5901 5901 5900 5900 5899 5900 5900 5901 5901 5901 5902 5901 5900 5898 5897 5896 5896 5895 5895 5893 5893 5893 5893 5892 5891 5890 5888 5887 5887 5886
5887 5888 5887 5886 5885 5886 5888 5889 5895 5897 5897 5901 5902 5902 5900 5897 5894 5893 5896 5895 5895 5894 5893 5892 5894 5896 5892 5895 5895 5895 5894 5893 5892 5891 5891 5890 5889 5887 5887 5887 5886 5885 5885 5884 5883 5880 5879 5879 5879
5881 5882 5882 5881 5879 5881 5881 5885 5888 5891 5893 5896 5895 5895 5897 5894 5891 5886 5893 5887 5883 5887 5885 5884 5885 5888 5887 5885 5885 5886 5886 5884 5884 5884 5885 5884 5882 5881 5880 5880 5879 5878 5877 5875 5874 5872 5871 5871 5870
5875 5873 5876 5875 5874 5875 5875 5878 5880 5884 5889 5889 5888 5888 5888 5887 5879 5872 5877 5871 5875 5877 5877 5877 5878 5880 5881 5878 5878 5878 5879 5878 5877 5877 5875 5874 5874 5874 5873 5873 5872 5871 5869 5867 5866 5864 5862 5862 5861
5870 5868 5868 5868 5869 5868 5870 5871 5871 5878 5879 5882 5884 5878 5876 5879 5874 5871 5863 5870 5868 5869 5871 5871 5871 5872 5871 5872 5870 5870 5871 5871 5869 5868 5867 5866 5867 5867 5866 5864 5864 5862 5862 5860 5858 5857 5855 5853 5854
5863 5862 5861 5861 5862 5862 5863 5864 5866 5868 5870 5875 5880 5869 5871 5868 5868 5867 5864 5869 5866 5863 5864 5865 5866 5865 5864 5866 5864 5862 5862 5861 5860 5858 5859 5859 5858 5857 5856 5855 5854 5853 5853 5852 5851 5848 5847 5845 5842
5858 5857 5857 5855 5858 5858 5861 5865 5858 5860 5865 5870 5871 5859 5865 5863 5863 5867 5863 5859 5860 5862 5858 5861 5860 5858 5856 5857 5855 5855 5853 5853 5853 5851 5848 5849 5850 5848 5847 5846 5845 5844 5842 5842 5840 5839 5836 5834 5830
5855 5857 5856 5853 5855 5855 5856 5857 5853 5856 5859 5860 5857 5860 5860 5858 5857 5858 5860 5855 5857 5854 5852 5853 5851 5852 5852 5849 5848 5849 5848 5847 5845 5842 5841 5841 5841 5840 5838 5838 5837 5835 5833 5832 5831 5829 5826 5823 5820
5853 5853 5853 5854 5851 5851 5848 5850 5850 5851 5852 5851 5853 5855 5855 5853 5850 5850 5849 5851 5851 5849 5844 5842 5845 5844 5843 5843 5843 5841 5840 5838 5837 5836 5835 5834 5833 5832 5829 5829 5827 5826 5824 5822 5820 5818 5816 5813 5811
5851 5851 5851 5850 5847 5845 5844 5844 5845 5846 5845 5847 5846 5848 5850 5848 5846 5847 5845 5843 5843 5843 5839 5838 5836 5834 5834 5833 5833 5831 5832 5832 5831 5831 5828 5826 5824 5823 5820 5818 5817 5814 5812 5810 5808 5806 5804 5802 5799
5847 5848 5847 5845 5843 5842 5841 5839 5839 5840 5840 5842 5843 5843 5842 5842 5841 5840 5839 5838 5836 5835 5832 5832 5833 5830 5828 5828 5828 5827 5827 5827 5826 5823 5820 5816 5813 5812 5810 5808 5806 5803 5801 5799 5796 5794 5790 5787 5784
5844 5844 5844 5843 5841 5838 5838 5836 5835 5835 5835 5835 5837 5837 5836 5836 5835 5833 5833 5833 5832 5830 5829 5827 5826 5825 5823 5821 5820 5819 5819 5818 5816 5814 5811 5808 5804 5802 5800 5797 5793 5791 5788 5786 5784 5780 5775 5771 5768
5840 5839 5839 5837 5837 5837 5834 5838 5831 5830 5830 5830 5830 5831 5830 5829 5828 5829 5829 5829 5829 5827 5826 5824 5822 5820 5817 5815 5813 5811 5810 5808 5805 5802 5799 5797 5795 5791 5787 5784 5781 5779 5775 5771 5768 5765 5760 5757 5754
5834 5834 5833 5833 5833 5832 5831 5831 5822 5827 5826 5826 5825 5825 5825 5823 5821 5823 5823 5823 5821 5820 5819 5818 5815 5811 5809 5807 5805 5802 5800 5798 5795 5792 5789 5786 5784 5779 5776 5772 5769 5767 5762 5757 5753 5748 5744 5738 5735
5830 5829 5829 5828 5829 5829 5829 5826 5821 5820 5821 5821 5821 5820 5819 5818 5817 5815 5815 5814 5813 5811 5808 5806 5805 5803 5800 5797 5795 5793 5789 5786 5783 5780 5776 5773 5769 5766 5761 5759 5755 5750 5744 5739 5734 5730 5726 5722 5717
5826 5825 5827 5829 5828 5826 5820 5819 5814 5813 5813 5813 5814 5813 5811 5810 5809 5808 5807 5806 5805 5802 5800 5797 5795 5792 5790 5786 5782 5779 5776 5772 5769 5764 5760 5758 5753 5748 5743 5741 5734 5730 5726 5721 5716 5713 5708 5703 5699
5821 5821 5821 5821 5822 5822 5812 5811 5807 5805 5803 5802 5802 5803 5803 5801 5800 5799 5799 5797 5795 5794 5792 5789 5786 5783 5779 5775 5770 5766 5760 5756 5751 5748 5745 5741 5735 5731 5725 5720 5716 5711 5707 5703 5700 5696 5692 5685 5681
5816 5816 5813 5812 5810 5809 5808 5803 5801 5799 5797 5795 5794 5793 5793 5793 5792 5790 5789 5787 5786 5783 5781 5779 5776 5771 5767 5763 5758 5752 5747 5741 5737 5732 5726 5721 5716 5711 5706 5703 5699 5695 5690 5686 5681 5677 5672 5667 5663
5811 5810 5808 5807 5805 5804 5803 5797 5794 5793 5791 5789 5787 5786 5784 5783 5782 5781 5779 5777 5774 5772 5769 5765 5761 5756 5752 5747 5742 5737 5732 5725 5719 5713 5708 5704 5699 5694 5689 5684 5680 5677 5672 5667 5663 5658 5654 5649 5645
5806 5804 5803 5801 5799 5798 5798 5798 5787 5786 5784 5782 5781 5780 5778 5776 5773 5771 5769 5767 5765 5761 5756 5752 5748 5743 5738 5732 5727 5721 5715 5709 5703 5698 5693 5688 5683 5678 5673 5668 5664 5659 5654 5650 5645 5640 5636 5633 5629
5799 5798 5796 5794 5794 5790 5790 5789 5783 5781 5778 5776 5774 5772 5770 5767 5765 5762 5760 5756 5752 5747 5742 5738 5733 5728 5723 5718 5713 5707 5701 5695 5689 5683 5678 5674 5669 5665 5660 5656 5652 5647 5641 5635 5630 5626 5623 5621 5618
Wind_Speed
13 13 14 10 9 7 9 13 9 6 9 9 4 6 6 14 10 8 12 12 13 12 12 14 14 14 17 17 15 12 11 10 9 8 6 5 4 3 2 2 3 3 3 3 3 3 3 4 4
16 16 14 11 9 5 14 10 9 7 10 10 8 7 10 14 15 15 15 15 15 12 12 13 14 15 17 17 15 13 12 10 8 7 5 5 5 5 5 5 4 5 6 5 5 5 5 5 5
18 19 17 13 11 11 15 15 10 10 14 13 11 11 13 17 17 17 17 17 16 13 12 14 14 15 14 14 14 13 12 10 9 9 8 8 8 8 8 8 8 8 8 8 7 8 8 8 8
21 22 20 17 16 16 18 18 15 11 12 15 16 15 19 20 19 19 16 16 16 13 12 13 14 14 14 13 14 15 14 13 11 10 10 10 10 10 10 11 10 10 10 10 10 10 10 10 10
24 25 24 21 22 17 16 20 18 9 9 14 17 16 24 22 22 19 17 15 15 12 11 12 13 11 12 10 12 13 14 13 12 11 11 10 11 11 12 14 14 14 14 14 15 15 15 14 14
20 22 22 18 26 21 18 22 20 19 13 15 16 18 26 26 22 18 17 15 14 11 12 14 14 13 13 12 12 12 14 13 13 13 12 12 13 13 14 16 17 17 18 18 18 18 18 18 18
17 19 17 19 25 24 22 20 25 19 17 18 13 12 16 20 21 19 16 15 16 16 15 15 15 14 15 15 14 15 16 16 17 17 17 17 19 18 20 20 22 23 23 23 23 22 21 21 21
18 18 22 24 22 22 18 23 23 31 25 25 24 23 21 24 25 22 21 22 22 20 19 17 17 18 17 18 17 18 20 20 21 22 23 24 24 24 24 25 26 26 25 26 26 27 27 26 26
19 19 20 17 23 20 28 22 25 27 33 31 24 27 30 30 29 29 31 27 28 28 27 26 24 18 18 20 18 18 19 22 25 25 26 26 28 28 27 27 28 29 28 29 30 30 31 31 30
22 22 22 28 29 28 32 28 24 25 27 31 27 24 29 35 32 32 38 38 34 32 32 30 28 30 28 25 24 25 26 27 28 28 30 31 32 33 32 31 30 31 31 32 32 32 33 34 33
24 24 27 29 31 31 29 31 24 21 26 30 32 36 30 35 39 40 41 40 40 43 36 32 35 34 23 25 23 24 26 28 28 30 32 34 36 36 36 33 32 32 34 35 36 36 36 36 36
27 28 31 32 33 30 32 24 22 21 24 27 32 33 35 35 38 24 26 44 50 44 41 35 28 27 35 33 27 29 31 33 35 36 37 39 39 40 41 36 37 36 36 36 39 39 38 38 39
29 34 33 35 35 33 34 31 26 26 28 31 36 35 39 42 47 44 55 46 20 28 28 36 32 35 34 36 29 29 34 38 40 40 38 39 39 37 33 36 39 39 37 40 40 39 40 38 37
23 29 32 34 33 36 35 33 27 28 27 30 39 35 36 41 48 53 53 35 26 21 28 24 37 37 39 39 30 28 32 37 42 44 45 45 41 38 39 38 36 36 37 37 36 36 38 39 34
16 18 22 28 29 31 32 32 32 28 24 24 25 35 30 41 53 55 54 44 46 38 38 45 38 35 36 38 36 33 35 37 40 39 41 43 40 39 38 38 41 38 41 42 43 44 47 45 46
12 11 12 19 19 26 24 22 32 29 24 20 23 32 30 29 43 50 54 55 48 46 37 38 38 36 38 36 39 36 38 38 41 41 30 31 34 35 36 36 35 38 38 41 40 46 43 48 51
7 5 9 17 16 22 22 24 25 25 18 19 22 24 24 28 34 36 44 39 41 52 47 43 37 38 42 38 39 35 35 37 34 29 30 34 37 38 40 39 38 40 43 42 40 41 40 44 45
8 10 11 9 19 23 28 27 26 22 22 25 26 29 27 27 36 37 34 38 40 41 33 32 35 33 36 36 34 30 36 26 28 29 35 39 39 41 41 41 42 40 39 40 42 43 42 44 48
5 8 13 16 20 21 23 23 23 25 26 27 31 30 28 28 31 37 25 15 22 40 29 26 27 30 28 28 32 32 32 32 32 36 38 42 47 44 41 43 46 47 46 45 44 44 44 48 51
8 8 12 17 17 19 19 22 23 26 29 30 27 31 36 34 33 23 20 21 23 21 24 29 31 25 29 29 29 31 32 35 40 40 41 45 47 46 45 46 48 49 51 53 52 53 55 57 58
13 13 14 15 17 20 19 24 26 28 30 32 28 24 29 32 33 28 23 21 26 28 30 33 34 37 38 39 39 38 39 43 44 45 46 47 50 52 52 53 53 55 59 58 57 59 63 67 68
15 17 18 20 19 15 19 20 27 25 28 29 28 25 29 35 37 33 21 24 30 32 33 38 42 43 45 47 48 47 47 48 49 50 52 53 54 56 57 59 60 65 67 66 68 70 72 72 73
18 17 18 19 18 20 24 23 34 26 28 28 27 27 29 34 32 26 28 32 36 38 42 46 46 47 49 51 52 53 53 53 54 56 57 58 59 60 62 63 65 72 72 73 75 78 76 77 78
16 17 20 22 19 22 24 30 33 34 31 32 33 33 32 31 34 35 34 37 39 42 43 43 44 46 49 50 52 54 56 57 60 61 62 64 65 65 66 69 75 80 79 81 80 74 76 77 78
15 17 13 16 17 19 29 31 35 36 35 35 36 39 38 40 42 43 42 41 37 37 39 42 44 46 50 52 54 56 58 60 62 63 65 68 70 71 76 79 82 81 83 78 78 77 77 77 77
16 17 14 16 15 18 28 25 30 28 29 31 33 32 33 35 32 32 33 34 36 36 39 43 46 48 50 55 55 59 63 66 69 71 72 74 76 81 83 81 78 76 78 77 75 76 75 75 75
19 17 22 21 22 23 22 24 24 21 21 23 25 27 25 25 28 30 32 33 38 42 45 47 50 56 57 59 64 66 68 70 72 74 75 75 75 75 75 74 73 72 71 71 69 69 68 67 68
16 20 20 17 18 16 21 26 24 22 22 22 23 25 26 28 28 32 37 42 45 47 50 52 56 58 59 61 64 65 66 67 68 68 67 66 66 65 64 62 61 60 59 60 62 64 64 63 60
21 20 18 21 24 20 17 19 30 24 26 26 27 27 29 32 35 38 41 43 46 48 50 52 54 55 57 58 58 56 51 48 48 50 51 53 54 55 53 53 54 55 54 54 57 57 58 54 51
22 19 19 21 19 22 23 26 29 28 29 29 30 31 33 36 37 40 41 43 46 49 52 53 52 52 51 44 45 47 47 49 50 49 47 45 44 44 43 40 40 40 41 40 39 37 35 38 41
Wind_Direction
249 245 249 257 249 264 279 295 312 287 273 300 301 261 202 191 192 194 204 200 182 185 192 193 194 191 190 192 188 186 184 183 177 176 178 185 194 198 222 260 290 298 296 300 303 298 295 289 287
248 252 247 248 238 233 269 269 289 258 278 286 302 286 200 200 200 197 206 208 194 190 197 201 193 193 188 191 193 196 201 196 205 199 203 214 222 232 236 247 258 273 284 291 296 296 296 297 300
253 253 252 246 241 223 228 252 255 256 276 266 282 272 223 201 205 205 208 210 202 196 205 215 205 204 201 195 202 211 213 221 221 228 229 239 244 246 253 259 264 269 275 286 291 294 293 290 292
257 261 261 253 237 246 226 241 253 260 255 261 280 265 216 200 201 206 214 220 214 209 218 226 226 219 220 215 221 227 226 231 234 242 247 255 262 267 269 271 270 270 274 275 276 278 278 281 286
252 257 265 261 259 250 238 230 237 229 249 263 271 240 215 208 208 212 219 229 228 222 233 238 234 228 228 231 235 243 242 240 242 243 253 256 264 269 275 276 276 276 274 273 274 274 277 278 279
254 259 263 269 259 253 247 231 230 236 244 254 247 245 215 215 218 223 224 225 227 221 231 238 233 226 231 229 238 242 247 249 253 253 255 260 265 270 276 281 283 284 283 281 277 277 279 279 276
247 254 253 245 268 263 245 238 233 236 231 227 240 244 232 224 225 229 226 222 225 227 227 233 237 232 234 242 240 245 252 257 259 258 259 264 267 267 270 274 278 280 281 283 283 280 276 273 272
256 258 259 260 268 268 256 244 237 238 238 230 241 252 246 240 236 232 227 223 224 226 229 228 235 236 239 248 249 252 256 260 263 264 266 263 262 266 269 271 273 275 278 280 281 280 277 274 271
257 260 263 253 267 260 277 261 239 239 241 245 248 247 246 243 235 232 229 224 227 220 221 226 230 239 246 252 253 259 265 267 266 267 269 271 272 271 271 273 275 278 278 278 279 279 278 275 274
259 259 261 254 267 266 274 270 269 247 245 245 244 235 243 229 227 224 235 230 229 236 238 237 235 235 240 249 254 259 261 264 268 269 269 271 271 271 270 271 275 277 278 280 279 276 275 273 272
265 264 259 264 264 266 270 276 272 266 248 239 243 243 244 239 222 225 241 234 243 240 227 233 240 241 236 238 247 253 261 266 269 271 271 272 271 269 269 268 274 278 280 281 281 278 276 276 275
267 262 261 263 261 263 265 260 266 248 260 250 243 244 241 239 238 207 240 235 231 249 233 231 242 234 234 233 241 252 259 265 270 273 273 273 272 271 265 271 274 276 280 279 279 278 277 276 275
261 263 259 259 261 258 260 263 257 245 242 248 240 238 239 239 246 228 242 224 239 249 242 242 237 249 257 257 254 261 264 266 270 272 273 270 271 272 268 271 274 276 276 276 276 277 278 275 273
270 265 262 257 257 258 256 257 255 257 256 247 245 269 244 242 246 250 261 243 213 228 238 247 250 250 253 259 255 263 260 268 268 269 268 269 268 269 268 267 269 276 277 276 275 275 270 274 264
282 268 263 255 251 251 251 254 267 261 246 254 257 267 256 265 240 245 254 240 243 225 234 245 245 255 261 266 261 258 264 262 266 265 267 266 269 269 273 277 274 276 274 276 272 274 277 277 277
305 285 270 256 249 255 257 256 256 263 261 262 256 257 268 269 260 254 243 249 239 247 239 251 258 270 274 271 272 263 263 266 271 274 276 285 288 282 283 284 283 281 280 281 279 278 280 279 278
333 255 239 269 260 262 257 239 256 263 256 244 237 260 272 273 269 271 266 265 268 253 244 254 255 260 263 269 269 267 270 267 272 284 289 285 282 282 280 280 280 280 282 283 281 280 278 278 281
296 254 245 244 269 267 264 261 256 252 253 257 265 258 260 264 259 262 265 265 273 268 246 252 250 255 257 269 277 276 269 280 288 290 289 286 283 283 284 283 280 279 280 281 281 280 281 281 279
287 255 256 270 275 270 270 263 258 246 251 255 259 265 268 266 265 264 262 270 267 258 248 268 277 294 295 297 294 287 301 303 296 287 283 284 284 285 286 286 286 286 285 283 281 282 284 289 287
273 276 266 270 276 276 272 262 258 255 250 256 272 278 264 268 267 247 258 265 266 286 289 289 269 288 282 278 291 295 287 284 282 281 284 285 287 287 290 290 291 291 291 290 286 285 285 290 289
276 270 265 258 279 272 271 264 261 261 264 269 271 276 269 259 265 262 268 276 280 287 289 291 296 296 291 290 287 286 284 282 282 284 287 289 290 291 291 293 298 300 297 292 288 286 290 292 292
272 266 267 268 271 281 275 261 275 268 273 277 279 274 274 267 251 256 262 271 274 277 285 287 286 284 285 286 285 282 281 281 282 284 285 288 290 292 291 293 294 298 296 293 290 288 288 286 290
258 263 264 268 270 257 272 265 267 265 268 273 279 280 279 275 276 267 266 266 275 282 281 279 278 280 279 280 280 281 280 280 281 283 285 286 287 286 286 287 290 295 292 290 291 291 288 289 288
269 268 266 264 260 263 260 264 272 271 270 270 270 273 273 273 277 281 278 279 278 279 280 280 280 281 283 282 281 282 281 281 281 281 280 281 280 282 286 286 287 290 289 289 289 287 286 285 285
279 282 282 275 274 281 260 261 256 270 272 267 266 267 269 267 268 270 271 273 277 279 281 281 283 283 284 285 284 282 281 280 279 280 283 283 285 284 286 288 288 287 286 286 286 286 285 284 283
282 283 270 269 268 265 273 272 278 277 275 267 264 266 261 266 269 268 269 272 273 277 279 281 281 279 279 279 277 282 284 286 286 284 282 283 282 283 284 285 285 285 285 284 284 283 282 280 280
290 285 284 281 281 280 270 285 280 276 272 269 266 266 265 263 263 265 268 274 275 275 277 276 281 280 278 279 282 285 284 283 282 282 283 284 284 284 284 284 284 284 282 282 282 282 281 281 280
287 286 284 289 277 277 284 289 285 286 282 279 278 273 273 274 278 274 269 268 272 276 282 284 286 286 286 285 286 287 287 287 287 287 287 287 286 286 285 284 285 285 284 283 282 281 281 281 280
291 285 274 270 274 276 279 281 286 291 289 288 285 283 280 279 279 280 283 285 286 286 285 284 284 286 288 290 290 291 293 294 293 292 290 288 287 288 288 287 288 288 287 286 285 284 283 283 283
291 286 277 276 277 279 279 278 281 292 292 291 290 288 287 287 288 289 290 291 290 289 291 293 292 292 292 295 299 300 299 299 299 297 295 293 292 291 292 292 295 296 295 292 289 289 286 284 286